[[{"header":{"parameterUnit":"m.s-1","parameterCategory":2,"la1":30.2992,"la2":30.254,"lo1":-89.0895,"lo2":-89.0443,"dy":0.0025,"dx":0.0025,"nx":19,"ny":19,"refTime":"2026-05-15T03:00:00:Z","depth":"0","parameterNumber":2,"parameterNumberName":"U-component_of_CURRENTS"},"data":[0,0,0,0.3688,0.3689,0.3708,0.3708,0.3746,0.3746,0,0,0,0,0,0,0,0,0,0,0,0.3671,0.3672,0.3687,0.3689,0.3708,0.3708,0.3745,0.3746,0,0,0,0,0,0,0,0,0,0,0,0.367,0.3671,0.3672,0.369,0.3709,0.3708,0.3745,0.3718,0,0,0,0,0,0,0,0,0,0,0.3693,0.3679,0.3671,0.3673,0.369,0.3709,0.3708,0.3716,0.3719,0.3754,0,0.3781,0,0.379,0.3753,0.3753,0,0,0,0.3648,0.3676,0.3704,0.3673,0.3691,0.3709,0.3688,0.3717,0.3722,0.3759,0.3781,0.3783,0.3791,0.3754,0.3754,0.4022,0.4025,0,0,0.3647,0.3647,0.3702,0.3708,0.3729,0.3688,0.3689,0.3719,0.3726,0.3781,0.3784,0.3791,0.3754,0.3755,0.402,0.4023,0,0,0,0.3672,0.3646,0.3671,0.3706,0.3723,0.369,0.3691,0.3723,0.3739,0.3784,0.3792,0.3755,0.3756,0.4018,0.4021,0.4098,0,0,0,0.3669,0.3664,0.3671,0.3667,0.3723,0.3721,0.3694,0.3735,0.374,0.3792,0.3755,0.3757,0.4016,0.402,0.4091,0.411,0,0,0,0.3664,0.3663,0.368,0.3668,0.3698,0.372,0.3734,0.3735,0.3747,0.3754,0.3757,0.4014,0.4019,0.4084,0.41,0.4273,0,0,0,0.364,0.3681,0.368,0.3733,0.3699,0.3791,0.3734,0.3778,0.3793,0.3756,0.4016,0.4021,0.4082,0.4095,0.4265,0.4177,0.4205,0,0,0.3678,0.3686,0.372,0.372,0.3806,0.3783,0.39,0.3882,0.3891,0.3993,0.3999,0.4093,0.41,0.4271,0.4479,0.4497,0,0,0,0.3723,0.3746,0.3775,0.3823,0.3885,0.3951,0.3961,0.4004,0.4094,0.3934,0.4179,0.4182,0.4287,0.422,0.4238,0.3948,0.4045,0.4045,0.4044,0.3755,0.3789,0.3854,0.3915,0.3984,0.4082,0.4158,0.4237,0.4214,0.4302,0.4308,0.4574,0.4507,0.4518,0.4221,0.439,0.439,0.439,0.4391,0.3824,0.3851,0.3915,0.3983,0.4076,0.4182,0.435,0.4378,0.4575,0.4486,0.4586,0.4382,0.454,0.4217,0.4397,0.4396,0.4395,0.4394,0.4394,0.3822,0.3837,0.3884,0.4001,0.4127,0.4252,0.4452,0.4565,0.4652,0.4752,0.4745,0.4741,0.4404,0.4832,0.4832,0.4833,0.4834,0.4835,0.4835,0.3788,0.3837,0.3909,0.4034,0.4122,0.4292,0.454,0.468,0.483,0.4847,0.4847,0.4472,0.4709,0.463,0.4849,0.4847,0.4845,0.4844,0.4843,0.3763,0.3795,0.3921,0.4007,0.4215,0.4314,0.4582,0.4793,0.4975,0.502,0.4607,0.4926,0.4905,0.4889,0.4817,0.5073,0.5073,0.5073,0.5072,0.374,0.3768,0.3934,0.4067,0.4225,0.4329,0.4424,0.4582,0.462,0.4532,0.4539,0.4337,0.4341,0.4274,0.4271,0.4183,0.4272,0.427,0.4269,0.3743,0.3817,0.3913,0.4047,0.4204,0.4269,0.4196,0.4036,0.4085,0.4208,0.4161,0.4195,0.3866,0.3894,0.3756,0.3776,0.362,0,0]},{"header":{"parameterUnit":"m.s-1","parameterCategory":2,"la1":30.2992,"la2":30.254,"lo1":-89.0895,"lo2":-89.0443,"dy":0.0025,"dx":0.0025,"nx":19,"ny":19,"refTime":"2026-05-15T03:00:00:Z","depth":"0","parameterNumber":3,"parameterNumberName":"V-component_of_CURRENTS"},"data":[0,0,0,0.0369,0.037,0.0384,0.0384,0.0394,0.0395,0,0,0,0,0,0,0,0,0,0,0,0.0359,0.036,0.0369,0.037,0.0384,0.0384,0.0394,0.0395,0,0,0,0,0,0,0,0,0,0,0,0.0359,0.036,0.036,0.037,0.0384,0.0384,0.0394,0.0384,0,0,0,0,0,0,0,0,0,0,0.037,0.0364,0.0359,0.036,0.037,0.0384,0.0384,0.0383,0.0384,0.0388,0,0.0393,0,0.04,0.0396,0.0396,0,0,0,0.0362,0.0363,0.037,0.036,0.0371,0.0384,0.0376,0.0384,0.0385,0.039,0.0393,0.0394,0.04,0.0396,0.0396,0.0543,0.0544,0,0,0.0361,0.0358,0.0369,0.0371,0.0378,0.0375,0.0376,0.0385,0.0385,0.0393,0.0394,0.0401,0.0396,0.0396,0.0541,0.0543,0,0,0,0.0364,0.0357,0.0364,0.0371,0.0377,0.0376,0.0377,0.0385,0.0388,0.0395,0.0401,0.0396,0.0396,0.054,0.0542,0.0713,0,0,0,0.0363,0.036,0.0364,0.0362,0.0377,0.0383,0.0377,0.0387,0.0389,0.0401,0.0396,0.0397,0.0538,0.0541,0.0705,0.0786,0,0,0,0.0358,0.0359,0.0363,0.0362,0.0373,0.0383,0.0386,0.0388,0.0393,0.0396,0.0397,0.0537,0.054,0.0698,0.0773,0.0919,0,0,0,0.0351,0.0394,0.0363,0.0423,0.0373,0.0452,0.0386,0.0425,0.0437,0.0396,0.0538,0.0542,0.0695,0.0765,0.091,0.1014,0.1062,0,0,0.041,0.04,0.0442,0.0417,0.0517,0.0449,0.0577,0.0547,0.0494,0.0529,0.0532,0.0708,0.0772,0.0917,0.1215,0.1258,0,0,0,0.0467,0.05,0.0523,0.0572,0.06,0.0669,0.0639,0.0649,0.0692,0.0518,0.0731,0.0767,0.0853,0.0897,0.0932,0.0688,0.0558,0.0558,0.0557,0.0545,0.058,0.0674,0.073,0.0781,0.0827,0.089,0.0903,0.082,0.0879,0.0923,0.1173,0.1224,0.1251,0.0998,0.0939,0.0939,0.094,0.094,0.0682,0.0753,0.0806,0.0907,0.0971,0.1068,0.1151,0.1132,0.1252,0.112,0.1196,0.1096,0.1299,0.1015,0.0952,0.095,0.0948,0.0947,0.0947,0.0752,0.0795,0.0854,0.1012,0.1152,0.1226,0.143,0.1435,0.1418,0.1499,0.1542,0.1538,0.1275,0.1541,0.1542,0.1543,0.1544,0.1545,0.1545,0.0796,0.0865,0.0975,0.1129,0.1239,0.1417,0.1597,0.171,0.1799,0.1757,0.1757,0.135,0.1357,0.1316,0.1562,0.1559,0.1557,0.1555,0.1554,0.0895,0.0905,0.1079,0.119,0.1461,0.1722,0.1867,0.2126,0.2196,0.2262,0.1759,0.1898,0.1858,0.1828,0.18,0.2156,0.2156,0.2156,0.2156,0.0935,0.0963,0.1179,0.1373,0.163,0.1865,0.2288,0.2484,0.2272,0.2073,0.1865,0.1696,0.1683,0.1617,0.1592,0.1551,0.1837,0.1836,0.1835,0.1007,0.1063,0.1225,0.1413,0.1704,0.205,0.2491,0.2738,0.2256,0.1787,0.151,0.1524,0.1228,0.1226,0.1073,0.1058,0.0972,0,0]}],[{"header":{"parameterUnit":"m.s-1","parameterCategory":2,"la1":30.2992,"la2":30.254,"lo1":-89.0895,"lo2":-89.0443,"dy":0.0025,"dx":0.0025,"nx":19,"ny":19,"refTime":"2026-05-15T03:00:00:Z","depth":"2","parameterNumber":2,"parameterNumberName":"U-component_of_CURRENTS"},"data":[0,0,0,0.2941,0.2943,0.3023,0.3023,0.307,0.307,0,0,0,0,0,0,0,0,0,0,0,0.2904,0.2905,0.2941,0.2944,0.3023,0.3023,0.307,0.307,0,0,0,0,0,0,0,0,0,0,0,0.2903,0.2905,0.2906,0.2944,0.3023,0.3023,0.307,0.3017,0,0,0,0,0,0,0,0,0,0,0.2944,0.2931,0.2904,0.2906,0.2945,0.3023,0.3023,0.3014,0.302,0.3027,0,0.3057,0,0.3082,0.3075,0.3075,0,0,0,0.2916,0.2926,0.2952,0.2906,0.2946,0.3023,0.2979,0.3018,0.3024,0.3034,0.3058,0.306,0.3082,0.3075,0.3076,0.3292,0.3294,0,0,0.2912,0.2909,0.2948,0.2957,0.2989,0.2977,0.2982,0.3022,0.3034,0.3058,0.3062,0.3083,0.3076,0.3076,0.329,0.3292,0,0,0,0.2918,0.2906,0.2931,0.2954,0.2983,0.298,0.2986,0.3032,0.3043,0.3063,0.3084,0.3076,0.3077,0.3288,0.3291,0.335,0,0,0,0.2914,0.2912,0.293,0.2927,0.2983,0.3018,0.2995,0.3039,0.3045,0.3083,0.3076,0.3078,0.3286,0.329,0.3344,0.3368,0,0,0,0.2896,0.291,0.2927,0.2927,0.2976,0.3018,0.303,0.304,0.3059,0.3075,0.3078,0.3285,0.3289,0.3339,0.336,0.3489,0,0,0,0.2878,0.2915,0.2927,0.2974,0.2975,0.3068,0.303,0.3094,0.3118,0.3076,0.3286,0.3291,0.3337,0.3355,0.3483,0.3341,0.3358,0,0,0.291,0.2919,0.2944,0.2958,0.3032,0.3053,0.3156,0.3168,0.3191,0.3259,0.3264,0.3346,0.3359,0.3488,0.3598,0.3607,0,0,0,0.2944,0.2963,0.2986,0.3037,0.3102,0.3174,0.3217,0.3262,0.3357,0.3233,0.3421,0.3429,0.3507,0.341,0.342,0.3312,0.3311,0.3311,0.331,0.2958,0.2991,0.3039,0.3095,0.317,0.3279,0.3355,0.3443,0.3438,0.3527,0.3532,0.3745,0.3645,0.3649,0.3597,0.3597,0.3598,0.3598,0.3598,0.2977,0.2994,0.3068,0.3125,0.3227,0.334,0.3505,0.3549,0.373,0.3675,0.3749,0.3545,0.3662,0.3604,0.3603,0.3602,0.3602,0.3601,0.3601,0.2953,0.2967,0.3011,0.3098,0.3233,0.3372,0.3519,0.3675,0.3803,0.3886,0.3834,0.3829,0.376,0.3951,0.3952,0.3952,0.3953,0.3953,0.3954,0.2895,0.2941,0.2974,0.3072,0.3136,0.3285,0.3556,0.368,0.3865,0.3916,0.3915,0.3865,0.3853,0.3785,0.3965,0.3963,0.3962,0.3961,0.396,0.2822,0.2835,0.2877,0.2917,0.304,0.3089,0.3366,0.3614,0.382,0.3878,0.3944,0.3941,0.3917,0.3906,0.3842,0.4027,0.4027,0.4027,0.4027,0.2723,0.2756,0.2785,0.2822,0.2896,0.2981,0.3025,0.3153,0.349,0.3579,0.3597,0.3427,0.3436,0.3375,0.3377,0.3297,0.3341,0.3339,0.3338,0.2615,0.2656,0.2656,0.2734,0.2815,0.2819,0.2753,0.2654,0.2925,0.3301,0.3378,0.4,0.3795,0.3792,0.3729,0.372,0.3605,0,0]},{"header":{"parameterUnit":"m.s-1","parameterCategory":2,"la1":30.2992,"la2":30.254,"lo1":-89.0895,"lo2":-89.0443,"dy":0.0025,"dx":0.0025,"nx":19,"ny":19,"refTime":"2026-05-15T03:00:00:Z","depth":"2","parameterNumber":3,"parameterNumberName":"V-component_of_CURRENTS"},"data":[0,0,0,0.016,0.0161,0.0177,0.0177,0.0167,0.0167,0,0,0,0,0,0,0,0,0,0,0,0.0153,0.0153,0.016,0.0161,0.0177,0.0177,0.0167,0.0167,0,0,0,0,0,0,0,0,0,0,0,0.0152,0.0153,0.0153,0.0161,0.0177,0.0176,0.0167,0.0161,0,0,0,0,0,0,0,0,0,0,0.0148,0.0147,0.0153,0.0153,0.0161,0.0177,0.0176,0.0161,0.0161,0.0153,0,0.016,0,0.0167,0.0166,0.0166,0,0,0,0.0154,0.0147,0.0154,0.0153,0.0161,0.0177,0.0168,0.0161,0.0161,0.0154,0.016,0.016,0.0167,0.0166,0.0166,0.022,0.0221,0,0,0.0153,0.0151,0.0154,0.0154,0.0171,0.0167,0.0168,0.0162,0.0162,0.016,0.016,0.0166,0.0166,0.0166,0.0219,0.022,0,0,0,0.0155,0.015,0.0158,0.0154,0.0162,0.0168,0.0169,0.0162,0.0166,0.016,0.0166,0.0166,0.0166,0.0219,0.022,0.0321,0,0,0,0.0154,0.0152,0.0157,0.0155,0.0162,0.0166,0.0169,0.0166,0.0166,0.0166,0.0166,0.0165,0.0218,0.0219,0.0316,0.0409,0,0,0,0.0151,0.0151,0.0156,0.0155,0.0166,0.0167,0.017,0.0166,0.017,0.0166,0.0165,0.0217,0.0219,0.0312,0.04,0.0486,0,0,0,0.0144,0.0174,0.0156,0.02,0.0166,0.0219,0.017,0.0194,0.0198,0.0166,0.0218,0.022,0.0311,0.0395,0.0481,0.0569,0.0602,0,0,0.0183,0.0178,0.0209,0.0194,0.0264,0.0216,0.0287,0.026,0.0218,0.0215,0.0216,0.0318,0.04,0.0485,0.0661,0.0692,0,0,0,0.0224,0.0249,0.0264,0.0302,0.032,0.0353,0.0324,0.0314,0.0315,0.0228,0.0322,0.0372,0.0422,0.0463,0.0487,0.0227,0.0227,0.0227,0.0227,0.0277,0.0305,0.0371,0.0407,0.0439,0.0451,0.0477,0.046,0.039,0.0407,0.0455,0.0598,0.0641,0.0661,0.043,0.043,0.043,0.0431,0.0431,0.0373,0.0426,0.0464,0.0536,0.0567,0.0624,0.064,0.0607,0.0656,0.056,0.0602,0.0569,0.0694,0.0439,0.0438,0.0436,0.0436,0.0435,0.0434,0.0429,0.0458,0.0502,0.0613,0.0712,0.0745,0.0882,0.0851,0.0789,0.0832,0.0864,0.0862,0.0684,0.0842,0.0843,0.0843,0.0844,0.0845,0.0845,0.0462,0.051,0.06,0.0702,0.0797,0.0936,0.1033,0.1095,0.1104,0.1028,0.1027,0.0737,0.0724,0.0709,0.0858,0.0855,0.0854,0.0853,0.0852,0.0537,0.0548,0.0693,0.079,0.1022,0.1257,0.1308,0.1453,0.1447,0.1473,0.113,0.1119,0.1107,0.1086,0.108,0.1316,0.1316,0.1316,0.1317,0.0572,0.0593,0.0802,0.0995,0.1223,0.1422,0.1712,0.1689,0.155,0.1375,0.1371,0.1269,0.1251,0.1238,0.1213,0.1205,0.1475,0.1475,0.1475,0.0626,0.0693,0.0862,0.1064,0.1338,0.1643,0.1914,0.1855,0.1544,0.1472,0.1308,0.1345,0.118,0.1157,0.1117,0.1086,0.1065,0,0]}],[{"header":{"parameterUnit":"m.s-1","parameterCategory":2,"la1":30.2992,"la2":30.254,"lo1":-89.0895,"lo2":-89.0443,"dy":0.0025,"dx":0.0025,"nx":19,"ny":19,"refTime":"2026-05-15T03:00:00:Z","depth":"4","parameterNumber":2,"parameterNumberName":"U-component_of_CURRENTS"},"data":[0,0,0,0.1796,0.1799,0.1966,0.1967,0.2116,0.2117,0,0,0,0,0,0,0,0,0,0,0,0.1744,0.1745,0.1795,0.18,0.1966,0.1967,0.2116,0.2117,0,0,0,0,0,0,0,0,0,0,0,0.1743,0.1744,0.1746,0.18,0.1966,0.1967,0.2115,0.2006,0,0,0,0,0,0,0,0,0,0,0.1852,0.1819,0.1744,0.1746,0.1801,0.1966,0.1967,0.2001,0.2012,0.2022,0,0.206,0,0.2089,0.2126,0.2126,0,0,0,0.18,0.181,0.1848,0.1746,0.1803,0.1965,0.1891,0.2008,0.2021,0.2037,0.2062,0.2068,0.2092,0.2126,0.2127,0.2274,0.2275,0,0,0.1791,0.1778,0.184,0.1857,0.186,0.1886,0.1896,0.2016,0.2038,0.2063,0.2072,0.2094,0.2127,0.2128,0.2274,0.2275,0,0,0,0.1764,0.1772,0.1809,0.185,0.1884,0.189,0.1902,0.2033,0.2044,0.2074,0.2096,0.2128,0.213,0.2273,0.2274,0.2322,0,0,0,0.1759,0.1756,0.1804,0.1799,0.1883,0.1971,0.1916,0.2036,0.2051,0.2095,0.2128,0.2131,0.2272,0.2274,0.2319,0.2326,0,0,0,0.1733,0.1753,0.1775,0.1798,0.1869,0.197,0.1989,0.204,0.2064,0.2126,0.2131,0.2272,0.2273,0.2316,0.2322,0.24,0,0,0,0.1709,0.1736,0.1776,0.1821,0.1867,0.1955,0.1989,0.2073,0.2128,0.2129,0.2272,0.2274,0.2315,0.232,0.2397,0.208,0,0,0,0.1717,0.1737,0.1761,0.18,0.1868,0.1931,0.2029,0.212,0.2154,0.2226,0.2231,0.232,0.2322,0.24,0.2175,0,0,0,0,0.1745,0.1769,0.1798,0.1856,0.1922,0.2018,0.2106,0.2158,0.2267,0.2196,0.2338,0.2338,0.2386,0.2192,0.2282,0.2281,0.2281,0.2281,0.2281,0.1732,0.1769,0.1812,0.1882,0.1957,0.2085,0.2173,0.2263,0.2293,0.2358,0.2392,0.2499,0.2296,0.2415,0.2415,0.2415,0.2415,0.2416,0.2416,0.1718,0.1721,0.1817,0.1876,0.1987,0.2095,0.2261,0.2325,0.2471,0.2454,0.2499,0.2271,0.2421,0.242,0.2419,0.2418,0.2418,0.2418,0.2417,0.1672,0.1668,0.1739,0.1825,0.1961,0.2119,0.2243,0.2387,0.2512,0.2571,0.2404,0.2547,0.2528,0.2622,0.2623,0.2623,0.2623,0.2624,0.2624,0.1556,0.1619,0.1642,0.1776,0.1842,0.1996,0.2246,0.2337,0.25,0.2424,0.2608,0.2569,0.2562,0.2542,0.263,0.2629,0.2628,0.2628,0.2627,0.1431,0.1477,0.1485,0.1534,0.1659,0.1759,0.2046,0.2209,0.2297,0.2311,0.2351,0.2363,0.2322,0.2322,0.2291,0.2309,0.2305,0.2301,0,0.1316,0.135,0.13,0.1303,0.1349,0.1573,0.1652,0.1839,0.2037,0.1966,0.2263,0.2298,0.2308,0.225,0.2245,0.2199,0,0,0,0.1202,0.1208,0.1118,0.1145,0.1173,0.1378,0.1655,0.1672,0.2017,0.2041,0.2207,0.2232,0.2422,0.2648,0.2615,0.2607,0.2572,0,0]},{"header":{"parameterUnit":"m.s-1","parameterCategory":2,"la1":30.2992,"la2":30.254,"lo1":-89.0895,"lo2":-89.0443,"dy":0.0025,"dx":0.0025,"nx":19,"ny":19,"refTime":"2026-05-15T03:00:00:Z","depth":"4","parameterNumber":3,"parameterNumberName":"V-component_of_CURRENTS"},"data":[0,0,0,0.0114,0.0114,0.0129,0.0129,0.0124,0.0124,0,0,0,0,0,0,0,0,0,0,0,0.0107,0.0107,0.0114,0.0114,0.0129,0.0129,0.0124,0.0124,0,0,0,0,0,0,0,0,0,0,0,0.0107,0.0107,0.0107,0.0115,0.0129,0.0129,0.0124,0.0118,0,0,0,0,0,0,0,0,0,0,0.0106,0.0104,0.0107,0.0107,0.0115,0.0129,0.0129,0.0118,0.0118,0.0112,0,0.0117,0,0.0122,0.0123,0.0123,0,0,0,0.011,0.0104,0.011,0.0107,0.0115,0.0129,0.0121,0.0118,0.0119,0.0112,0.0117,0.0117,0.0122,0.0123,0.0123,0.0125,0.0125,0,0,0.011,0.0107,0.0109,0.011,0.0122,0.0121,0.0122,0.0119,0.0119,0.0117,0.0117,0.0122,0.0123,0.0123,0.0125,0.0125,0,0,0,0.011,0.0107,0.0112,0.011,0.0116,0.0121,0.0123,0.0119,0.0122,0.0117,0.0122,0.0123,0.0123,0.0125,0.0125,0.0189,0,0,0,0.0109,0.0107,0.0112,0.011,0.0116,0.0121,0.0123,0.0122,0.0122,0.0122,0.0123,0.0123,0.0125,0.0125,0.0187,0.0248,0,0,0,0.0106,0.0107,0.011,0.011,0.0119,0.0121,0.0124,0.0122,0.0125,0.0123,0.0123,0.0125,0.0125,0.0185,0.0244,0.0283,0,0,0,0.0101,0.012,0.011,0.0138,0.0119,0.0149,0.0124,0.014,0.0142,0.0123,0.0125,0.0125,0.0185,0.0241,0.028,0.0318,0,0,0,0.0125,0.0123,0.0142,0.0134,0.0179,0.0147,0.0184,0.0172,0.0139,0.0123,0.0124,0.0188,0.0243,0.0282,0.0328,0,0,0,0,0.0151,0.0166,0.0177,0.0201,0.0211,0.023,0.0208,0.0189,0.0174,0.0142,0.0173,0.0207,0.0229,0.0242,0.0126,0.0126,0.0126,0.0126,0.0126,0.0181,0.0199,0.0243,0.0266,0.0285,0.0284,0.029,0.0259,0.0213,0.0206,0.0247,0.0309,0.0322,0.0214,0.0215,0.0215,0.0215,0.0216,0.0216,0.0243,0.0278,0.0304,0.0353,0.0369,0.0401,0.0382,0.035,0.0344,0.0285,0.0302,0.0293,0.0222,0.022,0.022,0.0219,0.0218,0.0218,0.0218,0.0275,0.0296,0.0329,0.0413,0.0486,0.0501,0.0574,0.0518,0.0433,0.0447,0.0449,0.0362,0.0372,0.0448,0.0448,0.0448,0.0449,0.0449,0.0449,0.0296,0.0332,0.0409,0.0492,0.0574,0.0672,0.0692,0.0685,0.0597,0.0552,0.0476,0.0387,0.038,0.0385,0.0456,0.0455,0.0454,0.0453,0.0453,0.0346,0.0365,0.0485,0.0569,0.076,0.0836,0.0856,0.081,0.0796,0.0745,0.0595,0.0586,0.0575,0.0563,0.0574,0.0704,0.0705,0.0706,0,0.0377,0.0395,0.0566,0.0723,0.0881,0.0943,0.0973,0.0944,0.081,0.0796,0.0777,0.0611,0.0602,0.0589,0.058,0.0593,0,0,0,0.0424,0.0472,0.0601,0.0754,0.094,0.0985,0.0986,0.0952,0.0838,0.0819,0.0727,0.0721,0.0604,0.0476,0.0438,0.0428,0.0435,0,0]}]]